Terug naar catalogus

STARLINK-33596

ActiefCommunicatieVLEO
NORAD 62758·PAYLOAD·🇺🇸 United States

Gelanceerd Jan 21, 2025 vanaf Vandenberg Space Force Base

Loading…

Volgende Passages (komende 24 uur)

TLE

VersSource: CelesTrak SupGP

Epoch: Sep 14, 2026, 22:52 UTC

1 62758C 25015A   26257.95326389 -.00050474  00000+0 -16229-2 0  2578
2 62758  53.1581 162.1010 0001202  68.7697  11.0898 15.31732152    10

Volg STARLINK-33596 in realtime met AllMySat

Download on the App Store